Lakeville, MN

12:20 PM CDT on June 28, 2017 (GMT -0500)
Airlake

Weather History for KLVN - September, 2011

Change the Weather History Date:

Sunday, September 25, 2011

  Actual Average Record
Temperature  
Mean Temperature 50 °F -  
Max Temperature 64 °F 68 °F 89 °F (1956)
Min Temperature 35 °F 44 °F 30 °F (2001)
Degree Days  
Heating Degree Days 16    
Moisture  
Dew Point 44 °F    
Average Humidity 82    
Maximum Humidity 100    
Minimum Humidity 49    
Precipitation  
Precipitation 0.00 in - - ()
Sea Level Pressure  
Sea Level Pressure 29.99 in    
Wind  
Wind Speed 2 mph (NE)    
Max Wind Speed 13 mph    
Max Gust Speed 21 mph    
Visibility 8 miles    
Events Rain    
Averages and records for this station are not official NWS values.
T = Trace of Precipitation, MM = Missing Value Source: NWS Daily Summary

Daily Weather History Graph

Daily Weather History Graph

Search for Another Location

Airport or City:

Trip Planner

Search our weather history database for the weather conditions in past years. The results will help you decide how hot, cold, wet, or windy it might be!

Date:

Astronomy

Sep. 25, 2011 Rise Set
Actual Time 7:03 AM CDT 7:05 PM CDT
Civil Twilight 6:34 AM CDT 7:34 PM CDT
Nautical Twilight 6:00 AM CDT 8:08 PM CDT
Astronomical Twilight 5:25 AM CDT 8:42 PM CDT
Moon 4:47 AM CDT (9/25) 5:48 PM CDT (9/25)
Length of Visible Light 13h 00m
Length of Day
12h 01m
Waning Crescent, 5% of the Moon is Illuminated
Sep 25
Waning Crescent
Sep 27
New
Oct 3
First Quarter
Oct 11
Full
Oct 19
Last Quarter

Hourly Weather History & Observations

Time (CDT) Temp. Windchill Dew Point Humidity Pressure Visibility Wind Dir Wind Speed Gust Speed Precip Events Conditions
12:13 AM 37.4 °F - 37.4 °F 100% 30.04 in 7.0 mi Calm Calm - N/A   Clear
12:34 AM 39.2 °F - 39.2 °F 100% 30.03 in 7.0 mi Calm Calm - N/A   Clear
12:54 AM 37.4 °F - 35.6 °F 93% 30.03 in 5.0 mi Calm Calm - N/A   Clear
1:14 AM 37.4 °F - 37.4 °F 100% 30.03 in 7.0 mi Calm Calm - N/A   Clear
1:34 AM 35.6 °F - 35.6 °F 100% 30.02 in 4.0 mi Calm Calm - N/A   Clear
1:54 AM 35.6 °F - 35.6 °F 100% 30.02 in 5.0 mi Calm Calm - N/A   Clear
2:13 AM 35.6 °F - 35.6 °F 100% 30.02 in 1.0 mi Calm Calm - N/A   Mist
2:34 AM 35.6 °F - 35.6 °F 100% 30.02 in 1.8 mi Calm Calm - N/A   Mist
2:54 AM 35.6 °F - 35.6 °F 100% 30.02 in 2.5 mi Calm Calm - N/A   Scattered Clouds
3:14 AM 37.4 °F - 37.4 °F 100% 30.02 in 5.0 mi Calm Calm - N/A   Overcast
3:34 AM 39.2 °F - 39.2 °F 100% 30.02 in 5.0 mi Calm Calm - N/A   Overcast
4:13 AM 41.0 °F - 41.0 °F 100% 30.02 in 5.0 mi Calm Calm - N/A   Overcast
4:34 AM 42.8 °F - 42.8 °F 100% 30.02 in 5.0 mi Calm Calm - N/A   Overcast
4:54 AM 42.8 °F - 42.8 °F 100% 30.01 in 5.0 mi Calm Calm - N/A   Overcast
5:13 AM 42.8 °F - 42.8 °F 100% 30.02 in 5.0 mi Calm Calm - N/A   Overcast
5:34 AM 42.8 °F - 42.8 °F 100% 30.03 in 5.0 mi Calm Calm - N/A   Overcast
5:53 AM 42.8 °F - 42.8 °F 100% 30.03 in 5.0 mi Calm Calm - N/A   Overcast
6:14 AM 42.8 °F - 42.8 °F 100% 30.02 in 5.0 mi Calm Calm - N/A   Mostly Cloudy
6:34 AM 41.0 °F - 41.0 °F 100% 30.03 in 5.0 mi Calm Calm - N/A   Mostly Cloudy
6:54 AM 42.8 °F - 42.8 °F 100% 30.04 in 3.0 mi Calm Calm - N/A   Overcast
7:14 AM 42.8 °F - 42.8 °F 100% 30.04 in 4.0 mi Calm Calm - N/A   Overcast
7:33 AM 41.0 °F - 41.0 °F 100% 30.04 in 3.0 mi Calm Calm - N/A   Scattered Clouds
7:54 AM 39.2 °F - 39.2 °F 100% 30.05 in 2.0 mi Calm Calm - N/A   Mostly Cloudy
8:14 AM 42.8 °F - 42.8 °F 100% 30.05 in 5.0 mi Calm Calm - N/A   Scattered Clouds
8:34 AM 44.6 °F - 44.6 °F 100% 30.05 in 4.0 mi Calm Calm - N/A   Mostly Cloudy
8:54 AM 46.4 °F 45.2 °F 46.4 °F 100% 30.05 in 7.0 mi East 3.5 mph - N/A   Scattered Clouds
9:14 AM 48.2 °F - 46.4 °F 93% 30.04 in 10.0 mi Calm Calm - N/A   Clear
9:34 AM 50.0 °F - 46.4 °F 87% 30.04 in 10.0 mi Calm Calm - N/A   Clear
9:54 AM 51.8 °F - 46.4 °F 82% 30.04 in 10.0 mi Calm Calm - N/A   Clear
10:14 AM 51.8 °F - 46.4 °F 82% 30.04 in 10.0 mi Calm Calm - N/A   Scattered Clouds
10:34 AM 53.6 °F - 46.4 °F 77% 30.03 in 10.0 mi Calm Calm - N/A   Scattered Clouds
11:14 AM 57.2 °F - 46.4 °F 67% 30.03 in 10.0 mi Calm Calm - N/A   Scattered Clouds
11:33 AM 60.8 °F - 46.4 °F 59% 30.02 in 10.0 mi ENE 4.6 mph - N/A   Scattered Clouds
11:54 AM 60.8 °F - 46.4 °F 59% 30.02 in 10.0 mi NE 5.8 mph - N/A   Scattered Clouds
12:14 PM 60.8 °F - 46.4 °F 59% 30.01 in 10.0 mi ENE 9.2 mph - N/A   Scattered Clouds
12:34 PM 59.0 °F - 46.4 °F 63% 30.00 in 10.0 mi NE 5.8 mph - N/A   Overcast
12:54 PM 59.0 °F - 46.4 °F 63% 30.00 in 10.0 mi NE 10.4 mph - N/A   Overcast
1:14 PM 60.8 °F - 46.4 °F 59% 29.98 in 10.0 mi NNE 6.9 mph - N/A   Mostly Cloudy
1:33 PM 60.8 °F - 46.4 °F 59% 29.98 in 10.0 mi ENE 5.8 mph - N/A   Mostly Cloudy
1:54 PM 62.6 °F - 46.4 °F 55% 29.97 in 10.0 mi East 6.9 mph - N/A   Overcast
2:14 PM 64.4 °F - 44.6 °F 49% 29.97 in 10.0 mi ENE 8.1 mph - N/A   Scattered Clouds
2:33 PM 64.4 °F - 44.6 °F 49% 29.96 in 10.0 mi NE 9.2 mph - N/A   Clear
2:54 PM 64.4 °F - 44.6 °F 49% 29.96 in 10.0 mi ENE 9.2 mph - N/A   Scattered Clouds
3:14 PM 62.6 °F - 44.6 °F 52% 29.95 in 10.0 mi ENE 5.8 mph - N/A   Scattered Clouds
4:14 PM 62.6 °F - 44.6 °F 52% 29.94 in 10.0 mi NNE 6.9 mph - N/A   Overcast
4:33 PM 60.8 °F - 44.6 °F 55% 29.94 in 10.0 mi ENE 9.2 mph - N/A   Overcast
4:54 PM 60.8 °F - 44.6 °F 55% 29.94 in 10.0 mi ENE 9.2 mph - N/A   Overcast
5:34 PM 60.8 °F - 46.4 °F 59% 29.94 in 10.0 mi NNE 5.8 mph - N/A   Overcast
6:14 PM 59.0 °F - 46.4 °F 63% 29.94 in 10.0 mi North 8.1 mph - N/A   Overcast
6:54 PM 57.2 °F - 48.2 °F 72% 29.93 in 10.0 mi NNE 4.6 mph - N/A Rain Rain
7:33 PM 57.2 °F - 48.2 °F 72% 29.93 in 10.0 mi NE 8.1 mph - N/A   Overcast
7:54 PM 57.2 °F - 48.2 °F 72% 29.93 in 10.0 mi NE 12.7 mph 20.7 mph N/A   Overcast
8:14 PM 57.2 °F - 48.2 °F 72% 29.93 in 10.0 mi NE 6.9 mph - N/A   Overcast
8:54 PM 55.4 °F - 48.2 °F 77% 29.93 in 10.0 mi NNE 5.8 mph - N/A   Light Drizzle
9:14 PM 55.4 °F - 50.0 °F 82% 29.93 in 10.0 mi NNE 8.1 mph - N/A   Overcast
9:34 PM 55.4 °F - 50.0 °F 82% 29.92 in 10.0 mi NNE 6.9 mph - N/A   Overcast
10:14 PM 55.4 °F - 50.0 °F 82% 29.92 in 10.0 mi North 4.6 mph - N/A   Mostly Cloudy
10:33 PM 55.4 °F - 50.0 °F 82% 29.92 in 10.0 mi NNE 3.5 mph - N/A   Overcast
10:54 PM 55.4 °F - 50.0 °F 82% 29.92 in 10.0 mi Calm Calm - N/A   Overcast
11:14 PM 55.4 °F - 50.0 °F 82% 29.91 in 10.0 mi North 3.5 mph - N/A   Overcast
11:33 PM 55.4 °F - 50.0 °F 82% 29.91 in 10.0 mi NNE 9.2 mph - N/A   Overcast
11:54 PM 53.6 °F - 51.8 °F 94% 29.91 in 10.0 mi NNE 6.9 mph - N/A   Overcast